Time,TemperatureF,DewpointF,PressureIn,WindDirection,WindDirectionDegrees,WindSpeedMPH,WindSpeedGustMPH,Humidity,HourlyPrecipIn,Conditions,Clouds,dailyrainin,SoftwareType,DateUTC
2013-08-11 00:05:00,58.5,37.4,29.97,NW,322,0.0,0.0,45,0.00,,,0.00,WUHU216WMR968SP,2013-08-11 07:05:00,
2013-08-11 00:10:00,58.3,37.4,29.97,NW,322,0.0,0.0,46,0.00,,,0.00,WUHU216WMR968SP,2013-08-11 07:10:00,
2013-08-11 00:15:00,58.3,37.4,29.97,NW,322,0.0,0.0,46,0.00,,,0.00,WUHU216WMR968SP,2013-08-11 07:15:00,
2013-08-11 00:20:00,58.3,37.4,29.97,NW,322,0.0,0.0,46,0.00,,,0.00,WUHU216WMR968SP,2013-08-11 07:20:00,
2013-08-11 00:25:00,58.1,37.4,29.97,NW,322,0.0,0.0,46,0.00,,,0.00,WUHU216WMR968SP,2013-08-11 07:25:00,
2013-08-11 00:30:00,58.1,37.4,29.97,NW,322,0.0,0.0,46,0.00,,,0.00,WUHU216WMR968SP,2013-08-11 07:30:00,
2013-08-11 00:35:00,58.1,37.4,29.97,NW,322,0.0,0.0,46,0.00,,,0.00,WUHU216WMR968SP,2013-08-11 07:35:00,
2013-08-11 00:40:00,57.9,37.4,29.97,NW,322,0.0,0.0,46,0.00,,,0.00,WUHU216WMR968SP,2013-08-11 07:40:00,
2013-08-11 00:45:00,57.7,37.4,29.97,NW,322,0.0,0.0,46,0.00,,,0.00,WUHU216WMR968SP,2013-08-11 07:45:00,
2013-08-11 00:50:00,57.7,37.4,29.97,NW,322,0.0,0.0,46,0.00,,,0.00,WUHU216WMR968SP,2013-08-11 07:50:00,
2013-08-11 00:55:00,57.6,37.4,29.97,NW,322,0.0,0.0,46,0.00,,,0.00,WUHU216WMR968SP,2013-08-11 07:55:00,
2013-08-11 01:01:00,57.4,37.4,29.97,NW,322,0.0,0.0,46,0.00,,,0.00,WUHU216WMR968SP,2013-08-11 08:01:00,
2013-08-11 01:06:00,57.2,37.4,30.00,NW,322,0.0,0.0,46,0.00,,,0.00,WUHU216WMR968SP,2013-08-11 08:06:00,
2013-08-11 01:11:00,57.2,37.4,30.00,NW,322,0.0,0.0,47,0.00,,,0.00,WUHU216WMR968SP,2013-08-11 08:11:00,
2013-08-11 01:16:00,57.0,37.4,30.00,NW,322,0.0,0.0,47,0.00,,,0.00,WUHU216WMR968SP,2013-08-11 08:16:00,
2013-08-11 01:22:00,56.8,37.4,30.00,NW,322,0.0,0.0,47,0.00,,,0.00,WUHU216WMR968SP,2013-08-11 08:22:00,
2013-08-11 01:27:00,56.7,37.4,30.00,NW,322,0.0,0.0,47,0.00,,,0.00,WUHU216WMR968SP,2013-08-11 08:27:00,
2013-08-11 01:32:00,56.5,37.4,30.00,NW,322,0.0,0.0,48,0.00,,,0.00,WUHU216WMR968SP,2013-08-11 08:32:00,
2013-08-11 01:37:00,56.5,37.4,30.00,NW,322,0.0,0.0,48,0.00,,,0.00,WUHU216WMR968SP,2013-08-11 08:37:00,
2013-08-11 01:42:00,56.3,37.4,30.00,NW,322,0.0,0.0,48,0.00,,,0.00,WUHU216WMR968SP,2013-08-11 08:42:00,
2013-08-11 01:47:00,56.3,37.4,30.00,NW,322,0.0,0.0,48,0.00,,,0.00,WUHU216WMR968SP,2013-08-11 08:47:00,
2013-08-11 01:52:00,56.3,37.4,30.00,NW,322,0.0,0.0,49,0.00,,,0.00,WUHU216WMR968SP,2013-08-11 08:52:00,
2013-08-11 01:57:00,56.3,39.2,30.00,NW,322,0.0,0.0,50,0.00,,,0.00,WUHU216WMR968SP,2013-08-11 08:57:00,
2013-08-11 02:02:00,56.3,39.2,30.00,NW,322,0.0,0.0,50,0.00,,,0.00,WUHU216WMR968SP,2013-08-11 09:02:00,
2013-08-11 02:07:00,56.3,39.2,30.00,NW,322,0.0,0.0,51,0.00,,,0.00,WUHU216WMR968SP,2013-08-11 09:07:00,
2013-08-11 02:13:00,56.3,39.2,30.00,NW,322,0.0,0.0,51,0.00,,,0.00,WUHU216WMR968SP,2013-08-11 09:13:00,
2013-08-11 02:18:00,56.1,37.4,30.00,NW,322,0.0,0.0,52,0.00,,,0.00,WUHU216WMR968SP,2013-08-11 09:18:00,
2013-08-11 02:23:00,56.3,41.0,30.00,NW,322,0.0,0.0,53,0.00,,,0.00,WUHU216WMR968SP,2013-08-11 09:23:00,
2013-08-11 02:28:00,56.3,41.0,30.00,NW,322,0.0,0.0,54,0.00,,,0.00,WUHU216WMR968SP,2013-08-11 09:28:00,
2013-08-11 02:33:00,56.5,41.0,30.00,NW,322,0.0,0.0,55,0.00,,,0.00,WUHU216WMR968SP,2013-08-11 09:33:00,
2013-08-11 02:39:00,56.7,41.0,30.00,NW,322,0.0,0.0,56,0.00,,,0.00,WUHU216WMR968SP,2013-08-11 09:39:00,
2013-08-11 02:44:00,56.8,42.8,30.00,NW,322,0.0,0.0,57,0.00,,,0.00,WUHU216WMR968SP,2013-08-11 09:44:00,
2013-08-11 02:49:00,57.0,42.8,30.00,NW,322,0.0,0.0,58,0.00,,,0.00,WUHU216WMR968SP,2013-08-11 09:49:00,
2013-08-11 03:35:00,57.6,42.8,29.97,NW,322,0.0,0.0,57,0.00,,,0.00,WUHU216WMR968SP,2013-08-11 10:35:00,
2013-08-11 03:40:00,57.4,41.0,29.97,NW,322,0.0,0.0,56,0.00,,,0.00,WUHU216WMR968SP,2013-08-11 10:40:00,
2013-08-11 03:45:00,57.2,41.0,29.97,NW,322,0.0,0.0,55,0.00,,,0.00,WUHU216WMR968SP,2013-08-11 10:45:00,
2013-08-11 03:50:00,57.2,41.0,30.00,NW,322,0.0,0.0,55,0.00,,,0.00,WUHU216WMR968SP,2013-08-11 10:50:00,
2013-08-11 03:55:00,57.4,41.0,30.00,NW,322,0.0,0.0,55,0.00,,,0.00,WUHU216WMR968SP,2013-08-11 10:55:00,
2013-08-11 04:00:00,57.6,41.0,30.00,NW,322,0.0,0.0,55,0.00,,,0.00,WUHU216WMR968SP,2013-08-11 11:00:00,
2013-08-11 04:06:00,57.6,41.0,30.00,NW,322,0.0,0.0,55,0.00,,,0.00,WUHU216WMR968SP,2013-08-11 11:06:00,
2013-08-11 04:11:00,57.4,41.0,30.00,NW,322,0.0,0.0,55,0.00,,,0.00,WUHU216WMR968SP,2013-08-11 11:11:00,
2013-08-11 04:16:00,57.6,41.0,30.00,NW,322,0.0,0.0,54,0.00,,,0.00,WUHU216WMR968SP,2013-08-11 11:16:00,
2013-08-11 04:21:00,57.6,41.0,30.00,NW,322,0.0,0.0,55,0.00,,,0.00,WUHU216WMR968SP,2013-08-11 11:21:00,
2013-08-11 04:26:00,57.7,41.0,30.00,NW,322,0.0,0.0,55,0.00,,,0.00,WUHU216WMR968SP,2013-08-11 11:26:00,
2013-08-11 04:31:00,57.7,41.0,30.00,NW,322,0.0,0.0,54,0.00,,,0.00,WUHU216WMR968SP,2013-08-11 11:31:00,
2013-08-11 04:36:00,57.6,41.0,30.00,NW,322,0.0,0.0,53,0.00,,,0.00,WUHU216WMR968SP,2013-08-11 11:36:00,
2013-08-11 04:41:00,57.7,41.0,30.00,NW,322,0.0,0.0,54,0.00,,,0.00,WUHU216WMR968SP,2013-08-11 11:41:00,
2013-08-11 04:46:00,57.9,41.0,30.00,NW,322,0.0,0.0,54,0.00,,,0.00,WUHU216WMR968SP,2013-08-11 11:46:00,
2013-08-11 04:52:00,57.9,41.0,30.00,NW,322,0.0,0.0,54,0.00,,,0.00,WUHU216WMR968SP,2013-08-11 11:52:00,
2013-08-11 04:57:00,58.1,42.8,30.00,NW,322,0.0,0.0,55,0.00,,,0.00,WUHU216WMR968SP,2013-08-11 11:57:00,
2013-08-11 05:02:00,58.1,42.8,30.00,NW,322,0.0,0.0,54,0.00,,,0.00,WUHU216WMR968SP,2013-08-11 12:02:00,
2013-08-11 05:07:00,58.1,42.8,30.00,NW,322,0.0,0.0,53,0.00,,,0.00,WUHU216WMR968SP,2013-08-11 12:07:00,
2013-08-11 05:12:00,58.3,42.8,30.00,NW,322,0.0,0.0,53,0.00,,,0.00,WUHU216WMR968SP,2013-08-11 12:12:00,
2013-08-11 05:17:00,58.3,42.8,30.00,NW,322,0.0,0.0,53,0.00,,,0.00,WUHU216WMR968SP,2013-08-11 12:17:00,
2013-08-11 05:23:00,58.3,42.8,30.00,NW,322,0.0,0.0,53,0.00,,,0.00,WUHU216WMR968SP,2013-08-11 12:23:00,
2013-08-11 05:28:00,58.3,41.0,30.00,NW,322,0.0,0.0,52,0.00,,,0.00,WUHU216WMR968SP,2013-08-11 12:28:00,
2013-08-11 05:33:00,58.3,41.0,30.00,NW,322,0.0,0.0,52,0.00,,,0.00,WUHU216WMR968SP,2013-08-11 12:33:00,
2013-08-11 06:23:00,58.3,41.0,30.00,NW,322,0.0,0.0,52,0.00,,,0.00,WUHU216WMR968SP,2013-08-11 13:23:00,
2013-08-11 06:29:00,58.3,41.0,30.00,NW,322,0.0,0.0,52,0.00,,,0.00,WUHU216WMR968SP,2013-08-11 13:29:00,